Simultaneous Nadir Overpasses (SNOs) Predictions

Prediction of SNOs between GOES-17 and LANDSAT-8 Satellite Orbit:

Table of predicted SNOs for the next 14.0 days since TLE Epoch: 8/24/2024
Index Date Time (GOES-17) GOES-17 Lat,Lon LANDSAT-8 Lat,Lon Distance(km) Time Diff (sec)
1 08/25/2024 05:15:34 -0.00,-104.69 -0.19,-105.52 94.41 80
2 08/27/2024 05:00:42 -0.01,-104.69 0.44,-102.56 242.62 80
3 08/27/2024 17:21:57 0.01,-104.74 0.67,-107.71 338.73 80
4 08/29/2024 17:09:45 0.01,-104.74 0.01,-104.75 1.46 80
5 08/31/2024 17:00:12 0.01,-104.74 -0.62,-101.78 336.44 80
6 09/01/2024 05:21:36 -0.01,-104.70 -0.46,-106.98 257.88 80
7 09/03/2024 05:06:42 -0.00,-104.71 0.15,-104.00 80.74 80
8 09/05/2024 04:54:28 -0.00,-104.72 0.80,-101.03 419.88 80
9 09/05/2024 17:15:42 0.00,-104.77 0.28,-106.19 161.17 80
